Lapse_Rate
6.5 6.5 6.5 6.5 6.5 6.5 6.5 6.5 6.5 6.5 6.5 6.5 6.5 6.5 6.7 7.0 7.2 7.5 7.5 7.7 7.8 7.8 7.2 6.9 5.3 4.5 4.1 3.7 3.9 4.3 4.5 4.8 5.1 5.7 5.4 5.4 4.9 4.5 4.4 4.1 3.9 3.4 3.8 4.7
6.5 6.5 6.5 6.5 6.5 6.5 6.5 6.5 6.5 6.5 6.5 6.5 7.1 7.2 6.9 7.1 7.2 7.2 7.4 7.7 7.9 7.9 7.6 6.1 5.5 4.6 4.2 3.9 3.8 3.9 3.8 4.1 4.7 4.7 5.0 5.1 5.0 4.8 4.3 3.8 3.8 3.5 3.7 4.5
6.5 6.5 6.5 6.5 6.5 6.5 6.5 6.5 6.5 6.5 6.5 6.6 6.5 6.7 6.9 7.1 7.3 7.3 7.5 7.8 7.9 7.8 7.5 6.5 5.7 4.7 4.3 4.2 4.2 3.6 3.6 4.1 4.3 4.5 4.5 4.9 4.8 4.7 4.4 4.4 4.6 4.5 4.5 4.3
6.5 6.5 6.5 6.5 6.5 6.5 6.5 6.5 6.5 6.5 6.5 6.7 6.8 7.2 7.5 7.7 7.6 7.6 7.8 7.9 8.0 7.7 7.4 7.2 6.0 5.5 5.3 4.8 4.1 3.6 3.5 3.7 4.0 4.2 4.1 4.6 4.8 4.8 4.8 4.9 4.9 4.8 4.8 4.5
6.5 6.5 6.5 6.5 6.5 6.5 6.5 6.5 6.5 6.5 6.5 6.9 7.2 7.3 7.1 7.5 7.6 7.9 7.8 7.6 7.2 7.0 6.9 6.9 7.2 6.4 5.5 5.1 4.5 4.1 3.8 4.2 4.4 4.4 4.2 4.4 4.4 4.5 4.6 4.3 4.6 4.8 4.6 4.2
6.5 6.5 6.5 6.5 6.5 7.0 6.7 6.5 6.7 6.8 6.6 6.7 7.0 6.5 6.5 7.2 6.8 7.2 7.7 7.5 6.9 6.6 6.4 5.9 6.2 6.3 5.5 5.1 5.4 5.0 4.8 4.6 5.0 4.9 4.2 3.9 4.2 4.1 4.0 3.7 3.4 3.5 3.6 3.9
6.5 6.5 6.5 6.5 6.8 7.2 6.5 6.5 6.9 7.1 7.0 7.0 6.6 7.0 7.6 7.9 7.7 8.1 7.2 6.8 6.9 6.5 6.3 6.2 6.4 6.0 4.9 4.8 4.6 4.8 4.9 4.6 4.2 4.0 3.5 3.6 3.8 3.9 3.7 3.8 3.7 3.6 3.7 3.7
6.5 6.5 6.5 6.9 6.7 6.5 6.6 7.2 7.3 7.3 7.4 7.2 7.5 7.7 7.9 8.1 8.1 8.1 7.8 7.5 7.7 7.2 6.1 6.0 5.5 4.8 3.9 3.4 3.7 4.4 4.5 4.0 3.7 3.5 3.7 3.6 3.4 3.6 3.6 3.3 3.4 3.8 4.4 4.2
6.5 6.5 6.7 7.3 7.0 7.5 7.6 7.3 7.4 7.5 7.7 7.7 7.5 7.7 7.9 7.9 7.7 7.3 8.0 7.2 7.0 7.1 6.6 6.3 6.2 5.2 4.3 3.9 5.2 5.4 5.2 4.1 4.1 4.1 4.2 4.0 4.0 4.1 4.3 4.5 4.4 4.5 4.8 4.1
6.5 6.5 6.7 7.1 7.5 7.7 7.8 7.7 7.8 7.9 7.8 7.9 7.8 7.9 7.9 8.1 8.1 7.7 6.6 6.1 6.2 6.2 5.8 6.0 6.4 6.6 6.3 5.4 5.5 6.4 6.6 5.5 5.3 5.4 5.2 4.7 4.1 3.8 4.7 4.8 4.9 4.4 4.0 3.8
6.5 6.7 7.0 7.2 7.4 7.7 7.8 7.7 7.7 8.0 8.1 8.1 8.0 8.0 8.1 8.0 8.2 8.1 7.9 6.6 5.8 5.6 5.5 5.6 6.0 6.4 7.7 7.6 6.3 5.4 5.3 4.8 4.8 5.3 5.4 4.4 4.6 4.9 4.4 4.6 4.6 4.5 4.7 4.5
6.5 6.9 6.9 7.0 7.4 6.6 7.0 7.4 7.9 7.9 8.0 8.2 8.3 8.1 8.2 8.2 7.9 8.1 7.8 6.7 5.6 5.4 5.5 5.3 5.4 5.3 5.7 6.8 7.2 6.4 5.7 5.2 4.9 5.2 5.1 4.2 4.2 4.4 3.5 2.8 2.7 3.0 2.9 3.0
7.0 7.7 7.6 7.6 7.5 7.8 7.8 7.7 7.3 7.7 7.8 8.2 8.5 8.5 8.4 8.2 7.3 6.9 7.4 5.9 5.6 5.4 5.0 5.0 5.0 5.0 5.6 5.9 5.9 5.4 5.2 5.4 5.9 5.9 6.0 6.3 6.2 5.2 4.1 3.3 1.7 1.5 1.7 1.9
8.0 7.8 7.3 7.7 7.6 7.6 7.5 8.1 8.0 6.6 7.8 7.7 8.3 8.4 7.7 7.2 8.1 7.5 6.3 6.5 6.1 4.9 4.5 4.9 5.0 5.0 5.6 5.3 4.8 4.6 4.5 3.8 4.1 5.2 5.9 6.1 5.9 5.2 5.1 4.7 4.6 4.3 2.0 2.0
7.9 8.1 7.9 7.8 7.3 7.3 7.2 6.9 6.8 7.1 7.2 7.3 8.2 8.3 7.9 7.0 6.8 7.1 7.2 7.8 5.7 4.2 4.1 4.5 4.5 4.8 5.3 4.4 3.8 3.7 4.1 4.2 4.4 3.9 3.9 4.3 4.0 4.0 4.3 4.4 4.6 4.6 4.4 3.8
7.6 7.5 7.9 7.8 6.9 6.7 6.4 6.7 6.9 6.0 6.0 6.1 6.5 6.6 7.2 6.7 6.0 5.9 6.1 5.8 4.7 5.1 5.4 4.4 3.7 4.3 4.0 3.4 3.1 3.0 3.4 3.1 2.6 2.5 2.9 2.9 3.0 3.1 3.2 3.4 3.7 3.7 4.0 3.9
7.2 7.1 6.5 6.3 7.1 6.6 6.6 6.1 6.0 5.8 5.6 5.4 5.3 5.5 5.2 5.3 5.2 4.9 5.0 5.4 5.1 4.6 4.4 3.8 3.4 3.5 2.8 2.6 2.6 2.7 3.1 3.1 3.1 2.3 2.5 2.7 2.9 2.9 3.0 3.2 3.3 3.3 3.4 3.5
7.5 7.2 7.8 7.7 7.4 6.9 6.2 5.9 5.9 6.0 5.4 5.0 4.5 4.2 4.4 4.8 4.8 4.9 5.0 4.4 3.2 2.9 3.5 3.4 3.1 2.7 2.2 2.0 1.8 1.9 1.8 1.7 1.7 1.8 1.8 2.0 2.6 2.7 2.9 3.0 3.0 3.0 3.1 3.1
8.1 7.9 7.2 6.6 6.8 7.4 6.8 6.3 6.2 5.9 5.5 5.6 5.0 4.9 4.9 4.6 4.3 4.3 3.9 2.9 2.6 2.2 3.2 3.1 2.3 0.9 1.5 1.8 1.3 1.4 1.3 1.5 1.7 1.8 1.7 1.8 1.7 1.8 2.1 2.7 3.2 4.0 4.4 3.8
6.8 6.5 6.5 6.7 6.7 6.6 6.3 6.5 6.0 5.8 5.9 5.4 4.8 4.8 5.0 5.3 4.8 3.8 3.3 2.3 2.9 3.7 3.9 2.5 1.5 1.1 1.3 1.6 1.4 1.1 1.4 1.9 2.2 2.4 2.6 2.8 3.0 3.1 3.2 3.4 4.2 4.8 5.6 5.6
6.4 5.8 5.2 5.2 5.4 5.7 5.4 6.1 6.5 5.7 5.2 4.9 4.4 3.9 4.1 4.2 3.7 2.9 2.3 2.7 3.9 2.6 2.2 2.0 1.6 1.6 1.5 1.8 1.8 1.7 1.9 2.3 2.7 2.9 3.5 4.0 4.3 4.4 4.6 5.4 5.8 5.7 5.4 5.3
5.1 4.9 4.5 5.0 5.6 5.4 4.8 5.1 5.0 4.9 4.7 4.5 3.8 3.4 3.4 3.2 3.4 3.2 3.3 3.7 4.0 3.5 3.0 2.4 1.7 1.8 2.0 2.5 1.9 1.9 2.2 2.6 3.2 3.7 4.2 4.5 4.9 5.1 5.2 6.0 5.7 5.4 5.1 5.0
3.9 5.2 6.4 6.3 5.5 5.4 5.1 4.5 4.3 4.4 4.3 4.3 4.2 4.4 4.3 4.7 4.7 4.4 4.4 4.3 2.7 2.8 2.9 2.6 2.5 2.4 2.5 2.5 2.4 2.8 3.1 3.2 3.4 4.1 4.8 5.0 5.0 5.0 5.1 5.3 5.0 4.9 4.9 4.7
7.0 6.7 6.5 6.0 5.4 4.8 4.9 4.7 5.2 4.9 4.8 3.8 3.3 3.5 3.7 3.9 4.1 4.3 4.0 3.8 3.6 3.4 3.6 3.5 3.3 3.3 3.3 3.2 3.5 3.9 4.2 3.9 3.9 4.5 4.9 5.7 5.2 5.0 5.2 5.1 4.7 4.7 4.5 4.4
5.8 5.6 5.0 4.7 5.6 6.2 6.2 5.9 5.9 5.5 5.5 5.1 4.4 4.2 3.7 3.8 3.8 4.4 5.0 4.9 4.5 3.9 3.4 3.6 3.8 4.0 4.4 4.7 4.5 4.5 4.3 3.7 4.0 4.5 4.7 4.8 4.9 4.9 5.5 5.1 4.9 4.7 4.4 4.1
7.1 7.0 6.9 7.0 7.2 6.2 5.8 5.8 6.2 5.8 6.1 5.8 5.0 5.4 5.6 5.5 5.2 4.9 4.8 4.7 4.3 4.5 4.1 3.9 4.0 4.2 3.7 3.9 4.3 4.1 3.7 4.3 4.6 4.7 5.0 5.1 5.2 5.2 5.2 5.0 4.6 4.3 4.0 3.6
6.2 7.0 7.7 8.1 7.7 7.6 7.1 7.1 7.6 6.8 7.2 7.4 7.4 6.8 6.7 6.0 6.0 5.6 5.4 5.2 5.0 5.0 4.6 4.0 3.8 4.0 3.9 3.7 3.8 4.1 4.4 4.5 4.6 4.6 4.8 5.1 5.2 5.1 5.0 4.7 4.3 3.7 3.3 2.8
Wind_Speed
11 13 13 16 16 14 18 21 11 13 17 21 15 13 13 12 13 14 13 11 9 9 7 7 7 7 6 6 6 6 6 6 7 7 7 7 7 7 7 7 7 6 6 6
7 13 13 17 19 21 23 23 27 26 31 25 21 10 4 5 7 9 11 12 11 11 10 9 8 8 7 7 6 6 7 7 6 7 7 7 7 6 6 6 6 6 6 6
5 1 10 15 18 22 19 20 21 21 26 19 18 16 15 13 13 14 14 13 13 11 9 8 8 8 8 8 6 7 7 7 7 7 8 8 7 7 6 6 6 6 6 7
7 10 4 3 5 4 6 15 18 22 23 21 19 17 16 16 16 15 12 9 7 6 7 8 7 8 8 7 7 7 7 8 7 8 8 8 7 7 6 6 6 5 5 5
4 7 15 2 2 1 6 3 6 16 16 13 10 9 13 3 2 4 5 7 7 6 7 6 6 7 7 7 8 8 9 9 8 8 8 8 7 7 6 5 6 5 5 6
0 4 4 3 2 0 1 3 4 2 7 9 3 5 6 3 4 5 6 6 7 7 7 7 7 6 8 9 9 9 9 8 8 7 8 8 7 7 6 6 6 5 6 6
9 6 8 7 8 3 3 3 3 5 7 8 6 8 10 9 9 9 9 9 8 8 8 9 7 7 9 10 10 9 8 8 8 8 9 8 7 6 6 6 6 7 7 7
6 6 8 9 6 5 2 2 6 12 11 11 12 14 14 14 14 12 11 11 11 9 8 8 7 8 10 12 10 9 8 9 9 9 7 6 8 7 8 7 8 8 8 6
9 6 3 7 12 6 7 9 14 15 13 12 14 14 13 13 14 13 12 11 10 9 10 8 7 8 11 12 9 9 9 10 10 10 9 9 9 8 7 7 6 6 5 5
3 6 16 15 13 16 16 15 14 13 14 13 17 16 17 16 14 12 9 9 7 8 9 10 9 10 11 11 10 9 10 10 9 9 9 9 7 6 7 7 7 6 5 5
13 17 18 13 3 7 7 8 11 15 16 17 17 18 18 15 15 12 11 8 6 8 9 11 11 11 10 9 9 9 10 9 9 8 9 8 9 8 8 9 7 6 6 5
9 15 13 14 12 10 14 17 15 16 17 17 16 17 16 14 12 12 10 7 7 8 10 10 10 11 10 9 9 9 9 7 7 7 6 6 6 7 11 13 11 11 11 7
16 18 18 21 14 15 13 14 17 19 19 20 19 16 15 14 13 11 9 9 9 9 8 9 9 9 8 7 7 8 8 8 6 6 6 7 7 7 7 6 18 17 16 17
13 12 13 18 14 14 14 15 16 18 16 16 16 15 14 13 14 13 12 11 8 7 8 8 8 8 6 5 5 6 7 9 6 6 5 6 6 5 6 6 7 6 16 17
12 11 12 14 15 13 12 12 15 15 15 14 12 13 12 13 12 13 11 9 7 7 7 7 7 7 4 4 5 6 5 4 4 3 4 5 4 4 5 6 7 7 4 6
12 11 8 9 13 13 13 12 12 14 14 14 13 13 13 12 11 9 7 5 6 6 4 4 5 5 3 4 4 4 4 7 5 4 4 4 4 4 5 6 6 6 6 5
9 9 12 13 13 15 14 13 12 13 13 12 13 12 11 9 8 6 5 4 5 7 6 6 7 3 3 3 4 3 3 3 6 4 5 4 4 5 5 5 6 6 6 4
8 9 9 9 11 12 14 14 12 13 12 11 10 8 7 6 6 5 4 3 4 6 8 8 6 4 4 5 4 3 3 4 4 4 4 4 5 5 6 7 8 8 7 7
11 11 12 13 13 13 12 11 11 11 10 9 9 9 7 7 6 5 4 4 6 6 6 4 6 6 5 6 5 4 4 5 5 4 4 7 6 6 6 7 8 9 8 6
13 13 13 13 12 11 13 13 13 12 10 7 8 8 8 7 6 6 5 7 7 6 4 5 5 6 7 6 8 5 5 5 6 5 4 5 6 7 7 10 9 8 7 7
14 12 13 13 14 15 12 13 13 14 14 10 8 9 8 7 6 5 5 5 6 7 7 8 6 5 5 6 6 5 6 6 6 6 6 6 6 7 7 8 7 7 7 6
11 11 12 13 13 15 14 14 15 14 14 13 11 10 9 11 8 8 10 10 8 8 5 5 4 8 7 9 5 6 7 7 6 6 6 6 6 7 8 7 7 7 6 6
8 8 11 13 13 15 17 15 15 13 13 13 13 12 10 9 8 8 10 6 8 8 6 5 8 11 13 7 6 7 8 8 7 7 7 6 6 7 8 7 7 6 6 5
11 12 13 13 13 12 15 17 14 14 14 13 12 11 10 8 9 7 9 13 14 12 11 9 9 12 12 5 6 7 8 7 7 6 6 11 6 6 8 7 7 6 6 6
13 14 13 12 12 10 14 15 15 13 13 13 12 9 10 7 8 9 7 8 11 9 8 10 13 12 6 6 7 8 7 6 5 5 5 6 6 6 8 7 7 6 5 4
14 12 12 14 12 11 10 10 10 10 9 11 11 9 8 7 7 8 7 9 8 10 7 6 4 4 5 6 7 6 5 5 5 5 6 6 6 6 7 7 5 4 2 1
12 16 11 10 10 10 9 9 10 12 11 10 12 10 10 9 9 9 10 8 7 6 5 4 4 6 5 5 4 5 5 5 8 5 5 5 5 6 6 4 2 1 1 1
Wind_Direction
265 268 259 253 254 233 222 230 249 267 264 272 284 289 286 275 271 281 288 283 270 257 261 245 231 225 228 234 236 250 270 279 287 302 307 312 314 322 324 326 329 333 331 336
280 260 258 265 257 248 246 243 246 262 273 282 285 315 353 322 307 287 281 283 283 271 267 257 233 222 220 226 230 240 256 265 279 296 302 304 311 320 330 327 333 335 338 338
275 205 283 276 255 238 242 244 246 251 257 280 291 291 299 306 299 291 290 291 289 282 273 251 230 217 220 221 221 234 254 268 274 280 288 293 299 302 304 310 321 325 332 339
289 304 244 22 220 243 262 260 244 249 268 277 284 286 289 287 286 284 285 290 301 292 273 256 234 223 222 217 222 234 250 256 261 264 270 279 283 287 292 302 308 315 317 323
271 303 292 241 85 59 197 308 248 243 263 285 305 301 282 238 250 281 293 297 298 304 302 293 260 233 224 227 226 235 245 250 248 249 259 266 268 270 278 282 287 291 296 297
226 275 264 66 106 149 294 239 29 332 294 317 321 297 27 186 213 243 258 273 281 288 287 273 264 239 234 240 239 242 241 244 247 241 244 252 257 261 264 260 262 264 268 269
241 270 279 275 155 170 287 72 61 15 340 304 262 286 327 312 294 284 282 286 281 269 263 263 252 232 235 243 241 240 235 234 233 232 232 239 247 248 251 255 255 255 253 250
204 241 263 144 136 206 45 246 312 333 323 308 292 292 296 297 295 289 284 291 283 279 274 262 241 230 236 240 239 236 233 232 232 230 228 229 235 236 235 239 246 253 255 254
211 226 252 197 255 284 316 296 300 308 304 307 298 285 289 290 291 288 288 289 288 279 277 266 254 239 253 258 254 245 237 238 239 234 231 226 232 235 240 240 246 256 253 250
298 248 263 283 271 259 274 277 289 294 293 300 292 281 288 288 286 276 269 275 278 276 268 274 274 261 251 263 269 261 252 249 248 245 240 234 229 237 242 236 235 238 239 239
259 274 273 283 340 343 314 316 302 293 291 288 286 281 285 287 286 282 282 272 260 268 275 280 287 281 274 261 264 260 253 249 253 248 240 237 240 231 231 239 230 232 234 229
255 280 300 306 333 340 309 300 298 298 296 289 287 285 285 281 280 284 277 271 272 275 280 283 283 280 281 278 264 258 255 249 248 248 241 243 254 260 235 246 261 247 248 250
267 282 298 302 310 294 306 318 307 301 295 294 287 282 279 280 276 274 271 270 267 273 281 283 281 280 282 276 263 257 257 262 261 246 248 250 240 241 259 234 233 235 240 245
292 285 285 292 305 324 305 302 301 297 295 290 290 282 279 278 278 271 262 264 263 263 263 270 275 281 289 284 272 263 260 254 265 271 273 263 259 254 252 256 261 245 231 235
300 322 308 297 305 314 317 316 308 301 304 302 299 293 290 283 276 276 273 268 258 255 262 265 270 281 293 284 278 275 274 266 269 258 260 266 272 272 267 269 268 268 274 215
315 311 314 317 314 322 325 326 317 311 311 306 303 298 293 288 281 275 275 263 247 257 264 264 266 276 289 281 280 281 274 258 263 270 267 258 251 250 255 257 261 259 256 251
334 359 346 340 338 331 327 322 321 317 315 308 305 306 302 295 288 279 270 268 277 282 280 273 269 273 254 247 268 278 285 293 279 275 267 260 257 257 258 260 261 260 257 241
330 320 322 315 318 319 320 320 317 317 316 315 312 312 311 302 290 300 308 306 260 267 269 263 251 233 222 227 232 248 256 259 259 263 277 276 270 272 274 270 266 262 263 251
347 333 329 329 327 323 316 314 310 307 307 309 311 310 309 294 287 288 292 279 275 280 280 221 230 227 243 237 225 242 248 261 263 263 265 278 278 272 267 267 271 272 269 259
331 335 329 321 324 326 319 318 316 310 307 308 304 300 304 306 300 291 283 269 259 253 271 236 220 235 239 233 224 235 244 252 259 263 266 263 266 268 268 263 263 264 265 262
313 315 318 321 317 317 316 314 314 308 307 295 281 281 275 274 271 268 278 277 268 228 238 244 233 244 234 221 214 224 232 242 246 253 258 264 273 274 272 269 265 260 257 253
295 305 306 309 308 307 310 311 307 302 297 295 285 269 271 277 274 256 237 239 272 255 254 248 237 238 239 230 225 227 230 234 242 249 255 259 266 274 277 272 268 266 258 251
278 289 296 297 297 301 303 300 298 299 293 288 287 285 273 269 270 268 277 239 237 253 249 249 247 244 240 236 238 239 239 237 239 246 252 255 260 272 276 274 268 266 262 255
302 295 289 288 293 298 296 297 290 288 287 284 276 269 268 276 276 251 256 271 270 263 262 266 261 250 250 246 246 246 245 243 245 248 253 261 263 266 272 271 269 266 257 250
293 287 283 283 288 289 291 292 295 292 291 292 289 277 257 248 243 281 283 284 286 274 272 266 260 261 257 249 248 247 243 239 237 240 250 255 257 257 273 276 269 260 250 243
287 292 294 293 285 282 284 284 283 288 292 291 290 292 289 279 268 270 272 268 267 272 270 266 251 250 248 255 256 250 241 245 252 256 257 259 256 262 271 269 258 250 247 213
286 283 288 289 283 281 278 282 287 289 290 285 287 294 292 292 287 282 279 275 269 261 254 257 260 267 265 251 248 252 255 254 256 255 255 260 261 266 262 259 250 234 187 169